www.pogodaiklimat.ru

Погода и климат >> Архив погоды >> Канада >> Нунавут >> Корал-Харбор


ПОГОДА в Корал-Харборе

  • Прогноз погоды в Корал-Харборе
  • Монитор погоды в Корал-Харборе

АРХИВ ПОГОДЫ в Корал-Харборе

Время (UTC), дата Ветер
(напр.,м/с)
 
Видим.   Явления Облачность Т
(С)
Тd
(С)
f
(%)
Тe
(С)
Тes
(С)
Комфортность P
(гПа)
Po
(гПа)
Тmin
(С)
Tmax
(С)
R
(мм)
R24
(мм)
S
(см)
09 12.07 0 1600 м 3/3 50 м
[]
+4.4 +4.3 99 1001.8 994.0
12 12.07 З 2 800 м туман 4/0
[Ci fib]
+6.9 +6.8 99 +5 +8 1001.9 994.2
15 12.07 0 24 км 3/3 600 м
[]
+11.3 +8.5 83 1001.9 994.2
18 12.07 0 24 км слаб. ливневой дождь 10/6 1000 м
[Sc Ac As]
+8.4 +7.0 91 1001.8 994.0 +11.3 0.4
21 12.07 0 9000 м 10/10 100 м
[]
+8.1 +7.5 96 1000.5 992.7
00 13.07 0 19 км слаб. дождь 10/10 100 м
[Sc]
+7.6 +6.5 93 999.2 991.4 +4.2 +11.3 4
03 13.07 Ю 6 6000 м 10/10 50 м
[]
+6.0 +5.7 98 +1 +1 999.1 991.4
06 13.07 800 м туман {дождь} н/о +5.0 +4.9 99 0 0 998.4 990.6 +4.2 +11.3 0.0
09 13.07 Ю 4 800 м 4/4 50 м
[]
+5.1 +5.0 99 +1 +1 1006.7 998.9
12 13.07 0 19 км слаб. дождь {туман} 10/10 50 м
[St]
+6.1 +5.8 98 996.6 988.9 +4.9 +11.3 0.2
15 13.07 0 24 км 10/10 50 м
[]
+8.7 +8.1 96 997.8 990.1
18 13.07 1600 м дымка {дождь} н/о +7.5 +7.2 98 999.2 991.4 +4.9 +8.7 0.0
21 13.07 0 24 км 9/9 50 м
[]
+8.8 +7.3 90 1001.1 993.3
00 14.07 0 24 км 9/9 600 м
[Sc]
+11.8 +8.9 82 1002.4 994.6 +4.9 +11.8
03 14.07 ЮВ 2 24 км 4/4 600 м
[]
+8.2 +7.1 93 +7 +7 1003.8 996.0
06 14.07 З 4 24 км 4/3 600 м
[Sc Ci fib]
+7.5 +6.3 92 +4 +4 1004.7 996.9 +4.9 +11.8 1
09 14.07 СЗ 3 24 км 3/3 600 м
[]
+6.3 +5.6 95 +3 +3 1006.1 998.3
12 14.07 0 24 км 5/1 50 м
[Sc Ci fib]
+9.2 +7.2 87 1006.9 999.1 +6.2 +11.8
15 14.07 0 24 км 8/8 1000 м
[]
+10.6 +8.2 85 1007.1 999.3
18 14.07 0 24 км 8/6 1000 м
[Sc Ac As Ci fib]
+11.8 +8.7 81 1006.7 998.9 +6.2 +11.8
21 14.07 0 24 км 6/6 1000 м
[]
+12.6 +8.7 77 1006.6 998.8
00 15.07 0 24 км 8/3 1000 м
[Sc Ac As Ci fib]
+11.9 +8.2 78 1006.9 999.1 +6.2 +14.2
03 15.07 З 1 24 км 8/8 600 м
[]
+10.4 +6.6 77 +10 +10 1007.1 999.3
06 15.07 СЗ 3 24 км 3/1 600 м
[Sc Ac As Ci fib]
+7.4 +6.7 95 +4 +4 1007.3 999.5 +6.2 +14.2 0
09 15.07 СЗ 2 24 км 3/3 600 м
[]
+4.8 +4.5 98 +2 +2 1007.5 999.7
12 15.07 0 800 м туман н/о +6.3 +6.2 99 1008.1 1000.3 +4.8 +14.2
15 15.07 0 24 км 5/5 600 м
[]
+10.0 +7.6 85 1007.7 999.9
18 15.07 0 24 км {туман} 6/6 600 м
[Sc Ac As Ci fib]
+13.3 +7.6 68 1007.0 999.2 +4.8 +13.3
21 15.07 0 24 км 9/9 600 м
[]
+15.6 +5.0 49 1006.5 998.7
00 16.07 0 24 км 9/4 600 м
[Sc Ac As Ci fib]
+14.8 +5.1 52 1006.5 998.7 +4.8 +16.0
03 16.07 ЮЗ 3 24 км 8/8 600 м
[]
+9.9 +8.3 90 +8 +8 1006.6 998.8
06 16.07 СЗ 3 24 км 4/1 600 м
[Sc Ac As Ci fib]
+7.3 +6.4 94 +5 +5 1006.3 998.5 +4.8 +16.0 1
09 16.07 С 4 24 км 9/9 600 м
[]
+6.0 +4.8 92 +2 +2 1006.1 998.3
12 16.07 0 24 км 3/1 600 м
[Sc Ac As Ci fib]
+9.3 +6.8 84 1005.4 997.7 +5.7 +16.0
15 16.07 0 24 км 8/8 600 м
[]
+12.3 +8.6 78 1004.6 996.9
18 16.07 0 24 км 8/4 600 м
[Cu hum Ac As Ci fib]
+13.2 +8.7 74 1003.9 996.2 +5.7 +13.2
21 16.07 0 24 км 9/9 300 м
[]
+12.2 +9.1 81 1003.5 995.7
00 17.07 0 24 км 9/9 300 м
[Sc]
+12.2 +7.9 75 1003.0 995.3 +5.7 +13.2
03 17.07 Ю 3 24 км 9/9 300 м
[]
+9.1 +8.5 96 +7 +7 1002.9 995.2
06 17.07 СЗ 1 400 м туман ясно +7.8 +7.7 99 +7 +7 1002.3 994.6 +5.7 +13.2 1
09 17.07 З 2 200 м ясно +7.8 +7.7 99 +5 +6 1002.3 994.6
12 17.07 ЮВ 3 200 м туман н/о +7.7 +7.6 99 +5 +5 1001.9 994.2 +7.2 +13.2
15 17.07 0 24 км 10/10 50 м
[]
+6.4 +6.3 99 1001.1 993.3
18 17.07 0 12 км дождь {туман} 10/0 100 м
[As op]
+7.0 +6.9 99 999.5 991.7 +6.3 +8.1 5
21 17.07 0 24 км 10/10 100 м
[]
+8.8 +8.2 96 997.2 989.5
00 18.07 0 24 км {дождь} 10/10 100 м
[St]
+7.8 +7.1 95 996.5 988.8 +6.3 +8.8
03 18.07 0 400 м н/о +8.0 +7.9 99 996.5 988.8
06 18.07 СЗ 3 4800 м дымка {туман} 1/1 600 м
[Sc Ac trans Ci fib]
+7.2 +7.1 99 +4 +4 996.5 988.8 +6.3 +8.8 0.0 1
09 18.07 0 24 км 4/0
[]
+5.7 +4.4 91 996.5 988.8
12 18.07 С 2 24 км 9/9 1000 м
[Sc Ci fib]
+8.3 +5.8 84 +6 +7 996.6 988.9 +4.7 +8.8
15 18.07 0 24 км 5/5 1500 м
[]
+11.5 +6.5 71 996.2 988.5
18 18.07 0 24 км 9/9 1000 м
[Sc]
+11.1 +6.9 75 996.3 988.6
21 18.07 0 24 км 9/9 1500 м
[]
+11.5 +6.5 71 996.7 989.0
00 19.07 0 24 км в посл. час ливневой дождь 8/8 1000 м
[Cu Sc]
+12.2 +9.4 83 996.9 989.2 0.0
03 19.07 0 24 км 6/6 1500 м
[]
+11.0 +8.4 84 997.8 990.1
06 19.07 С 4 24 км 4/4 1500 м
[Sc]
+7.0 +5.6 91 +3 +3 998.9 991.2

 

Местоположение метеостанции Корал-Харбор (Нунавут, Канада): широта 64.20 долгота -83.36 высота над уровнем моря 64 м.

В архиве по умолчанию представлена погода в Корал-Харборе за последнюю неделю. Архивные данные за месяц целиком и за предыдущие месяцы, начиная с января 2011 года, Вы можете получить, выбрав интересующий диапазон дат из раскрывающегося списка и нажав кнопку "Ввод!".


*Определитесь, кто Вы:
робот инопланетянин человек

Внимание! Время в таблицах - всемирное. Для получения местного времени необходимо прибавить поправку, которая равна -5 ч.

Смотрите также архив погоды в соседних городах и на ближайших метеорологических станциях:

Погода в Кейп-Дорсете (Нунавут, Канада) (330 км)
Погода в Вейджер Бэй (Нунавут, Канада) (340 км)
Погода в Саллюите (Квебек, Канада) (446 км)
Погода в Ранкин-Инлете (Нунавут, Канада) (460 км)
Погода в Холл Бич (Нунавут, Канада) (518 км)
Погода в Кам Фор (Нунавут, Канада) (549 км)
Погода в Кугааруке (Нунавут, Канада) (560 км)
Погода на Острове Роули (Нунавут, Канада) (575 км)
Погода в Национальном парке Пингалюи (Квебек, Канада) (589 км)
Погода в Бейкер Лейк (Нунавут, Канада) (610 км)

Пояснения к столбцам:

Ветер - указаны скорость ветра в м/с - средняя за 10 мин, порывы в срок и между сроками (в фигурных скобках) и направление, откуда дует ветер: С - северный, СВ - северо-восточный, В - восточный, ЮВ - юго-восточный, Ю - южный, ЮЗ - юго-западный, З - западный, СЗ - северо-западный.
Видимость - горизонтальная дальность видимости в метрах или километрах. При видимости от 1 до 10 км при отсутствии осадков обычно наблюдается дымка, при ухудшении видимости до 1 км и менее - туман. В сухую погоду видимость может ухудшаться дымом, пылью или мглою.
Явления - указаны атмосферные явления, наблюдавшиеся в срок или в последний час перед сроком; фигурными скобками обозначены явления, наблюдавшиеся между сроками (за 1-3 часа до срока); квадратными скобками обозначены град или гололедные отложения с указанием их диаметра в мм.
Облачность - указаны через наклонную черту общая и нижняя облачность в баллах и высота нижней границы облаков в метрах; квадратными скобками обозначены формы облаков: Ci - перистые, Cs - перисто-слоистые, Cc - перисто-кучевые, Ac - высококучевые, As - высокослоистые, Sc - слоисто-кучевые, Ns - слоисто-дождевые, Cu - кучевые, Cb - кучево-дождевые. Подробнее классификацию облаков см. в Атласе облаков (PDF).
T - Температура воздуха - температура, измеренная на высоте 2 м над землей.
Td - Температура точки росы - температура, при понижении до которой содержащийся в воздухе водяной пар достигнет насыщения.
f - Относительная влажность воздуха - влажноcть воздуха, измеренная на высоте 2 м над землей.
Te - Эффективная температура - температура, которую ощущает одетый по сезону человек в тени. Характеристика душности погоды. При расчете учитывается влияние влажности воздуха и скорости ветра на теплоощущения человека.
Tes - Эффективная температура на солнце - температура, которую ощущает человек, с поправкой на солнечный нагрев. Характеристика знойности погоды. Зависит от высоты солнца над горизонтом, облачности и скорости ветра. Ночью, в пасмурную погоду, а также при ветре 12 м/с и более поправка равна нулю.
P - Атмосферное давление - приведенное к уровню моря атмосферное давление.
Po - Атмосферное давление - измеренное на уровне метеостанции атмосферное давление.
Tmin - Минимальная температура - минимум температуры воздуха на высоте 2 м над землей.
Tmax - Максимальная температура - максимум температуры воздуха на высоте 2 м над землей.
R - Количество осадков - Количество выпавших осадков за период времени, мм. При наведении курсора мыши на число - период времени, за который выпало указанное количество осадков.
R24 - Количество осадков - Количество выпавших осадков за 24 часа, мм.
S - Снежный покров - Высота снежного покрова, см. При наведении курсора мыши на число - состояние снежного покрова и степень покрытия местности в баллах.